Ahmedabad, India

11:57 PM IST on November 21, 2017 (GMT +0530)
Ahmedabad

Weather History for VAAH - March, 2014

Change the Weather History Date:

Tuesday, March 18, 2014

  Actual Average Record
Temperature  
Mean Temperature 82 °F -  
Max Temperature 93 °F 97 °F 105 °F (2011)
Min Temperature 71 °F 71 °F 66 °F (1998)
Cooling Degree Days 17    
Growing Degree Days 32 (Base 50)    
Moisture  
Dew Point 51 °F    
Average Humidity 38    
Maximum Humidity 74    
Minimum Humidity 12    
Precipitation  
Precipitation 0.00 in 0.00 in - ()
Sea Level Pressure  
Sea Level Pressure 29.94 in    
Wind  
Wind Speed 6 mph ()    
Max Wind Speed 12 mph    
Max Gust Speed -    
Visibility 3.0 miles    
Events      
Averages and records for this station are not official NWS values.
T = Trace of Precipitation, MM = Missing Value Source: Averaged Metar Reports

Daily Weather History Graph

Daily Weather History Graph

Search for Another Location

Airport or City:

Trip Planner

Search our weather history database for the weather conditions in past years. The results will help you decide how hot, cold, wet, or windy it might be!

Date:

Astronomy

Mar. 18, 2014 Rise Set
Actual Time 6:45 AM IST 6:49 PM IST
Civil Twilight 6:23 AM IST 7:12 PM IST
Nautical Twilight 5:57 AM IST 7:38 PM IST
Astronomical Twilight 5:31 AM IST 8:04 PM IST
Moon 8:23 PM IST (3/18) 7:32 AM IST (3/18)
Length of Visible Light 12h 48m
Length of Day
12h 03m
Full, 98% of the Moon is Illuminated
Mar 18
Full
Mar 24
Last Quarter
Mar 31
New
Apr 7
First Quarter
Apr 15
Full

Hourly Weather History & Observations

Time (IST) Temp. Heat Index Dew Point Humidity Pressure Visibility Wind Dir Wind Speed Gust Speed Precip Events Conditions
12:10 AM 84.2 °F 83.8 °F 59.0 °F 42% 29.92 in 2.5 mi West 9.2 mph - N/A   Smoke
1:10 AM 80.6 °F 81.5 °F 60.8 °F 51% 29.92 in 2.5 mi West 6.9 mph - N/A   Smoke
1:40 AM 80.6 °F 81.8 °F 62.6 °F 54% 29.92 in 2.5 mi West 6.9 mph - N/A   Smoke
2:10 AM 78.8 °F - 62.6 °F 57% 29.92 in 2.5 mi West 5.8 mph - N/A   Smoke
2:30 AM 78 °F - 68 °F 65% 29.91 in 2 mi NW 4.6 mph - -   Haze
2:40 AM 78.8 °F - 64.4 °F 61% 29.92 in 2.5 mi West 8.1 mph - N/A   Haze
3:10 AM 77.0 °F - 62.6 °F 61% 29.92 in 2.5 mi West 6.9 mph - N/A   Haze
3:40 AM 75.2 °F - 64.4 °F 69% 29.92 in 2.5 mi West 5.8 mph - N/A   Haze
4:10 AM 75.2 °F - 64.4 °F 69% 29.92 in 2.5 mi West 5.8 mph - N/A   Haze
4:40 AM 75.2 °F - 64.4 °F 69% 29.92 in 2.5 mi West 5.8 mph - N/A   Haze
5:10 AM 73.4 °F - 64.4 °F 73% 29.92 in 2.5 mi WNW 5.8 mph - N/A   Haze
5:30 AM 74 °F - 67 °F 74% 29.93 in 2 mi NW 4.6 mph - -   Haze
5:40 AM 73.4 °F - 62.6 °F 69% 29.95 in 2.5 mi NW 5.8 mph - N/A   Haze
6:10 AM 73.4 °F - 62.6 °F 69% 29.95 in 2.5 mi WNW 4.6 mph - N/A   Haze
7:10 AM 71.6 °F - 57.2 °F 60% 29.98 in 1.6 mi NW 6.9 mph - N/A   Haze
7:40 AM 71.6 °F - 57.2 °F 60% 29.98 in 1.6 mi NW 9.2 mph - N/A   Haze
10:10 AM 78.8 °F - 48.2 °F 34% 30.01 in 3.1 mi North 9.2 mph - N/A   Haze
10:40 AM 80.6 °F - 48.2 °F 32% 30.01 in 3.7 mi North 11.5 mph - N/A   Unknown
11:10 AM 82.4 °F - 50.0 °F 32% 30.01 in 3.7 mi WNW 9.2 mph - N/A   Unknown
11:30 AM 83 °F - 56 °F 29% 30.03 in 2 mi NW 2.3 mph - -  
11:40 AM 84.2 °F - 46.4 °F 27% 30.01 in 3.7 mi NNE 6.9 mph - N/A   Unknown
12:10 PM 87.8 °F - 44.6 °F 22% 29.98 in 3.7 mi NW 6.9 mph - N/A   Unknown
12:40 PM 87.8 °F - 44.6 °F 22% 29.98 in 3.7 mi WNW 6.9 mph - N/A   Unknown
1:10 PM 89.6 °F - 41.0 °F 18% 29.98 in 3.7 mi NNW 5.8 mph - N/A   Unknown
2:10 PM 93.2 °F - 33.8 °F 12% 29.92 in 5.0 mi West 8.1 mph - N/A   Unknown
2:30 PM 90 °F - 52 °F 18% 29.95 in 2 mi NW 4.6 mph - -  
3:10 PM 93.2 °F - 41.0 °F 16% 29.89 in 5.0 mi North 6.9 mph - N/A   Unknown
3:40 PM 93.2 °F - 39.2 °F 15% 29.89 in 5.0 mi WNW 9.2 mph - N/A   Unknown
4:10 PM 93.2 °F - 44.6 °F 19% 29.89 in 5.0 mi WNW 6.9 mph - N/A   Unknown
4:40 PM 93.2 °F - 41.0 °F 16% 29.86 in 5.0 mi WNW 10.4 mph - N/A   Unknown
5:10 PM 93.2 °F - 39.2 °F 15% 29.86 in 5.0 mi NW 5.8 mph - N/A   Unknown
5:30 PM 92 °F - 55 °F 19% 29.90 in 2 mi NW 3.5 mph - -  
5:40 PM 91.4 °F - 41.0 °F 17% 29.86 in 5.0 mi WNW 6.9 mph - N/A   Unknown
6:10 PM 91.4 °F - 42.8 °F 18% 29.86 in 3.7 mi WNW 4.6 mph - N/A   Unknown
6:40 PM 87.8 °F - 42.8 °F 21% 29.89 in 3.7 mi NW 4.6 mph - N/A   Unknown
7:40 PM 84.2 °F - 42.8 °F 23% 29.92 in 2.5 mi North 2.3 mph - N/A   Smoke
8:10 PM 82.4 °F - 44.6 °F 26% 29.92 in 2.5 mi North 2.3 mph - N/A   Smoke
8:30 PM 79 °F - 55 °F 33% 29.95 in 2 mi Calm Calm - -   Smoke
8:40 PM 80.6 °F - 44.6 °F 28% 29.95 in 2.5 mi Calm Calm - N/A   Smoke
9:10 PM 78.8 °F - 44.6 °F 30% 29.95 in 2.5 mi Calm Calm - N/A   Smoke
9:40 PM 78.8 °F - 42.8 °F 28% 29.95 in 2.5 mi NNW 3.5 mph - N/A   Smoke
10:10 PM 78.8 °F - 46.4 °F 32% 29.95 in 2.5 mi NNW 3.5 mph - N/A   Smoke
10:40 PM 77.0 °F - 46.4 °F 34% 29.95 in 2.5 mi NW 2.3 mph - N/A   Smoke
11:10 PM 73.4 °F - 46.4 °F 38% 29.95 in 2.5 mi NNW 3.5 mph - N/A   Smoke
11:30 PM 72 °F - 53 °F 41% 29.96 in 2 mi NNW 2.3 mph - -   Smoke
11:40 PM 73.4 °F - 46.4 °F 38% 29.95 in 2.5 mi NNW 3.5 mph - N/A   Smoke